7 * 24
多渠道服务支持
STARLINK-34950是美国于2025年8月14日发射的星链卫星,属于SpaceX公司星链(Starlink)星座项目。星链项目旨在构建全球卫星互联网星座,为全球多地提供高速低延迟宽带互联网服务,该卫星发射后将加入近地轨道星座组网,进一步扩展星链系统的全球覆盖范围与服务能力。
美国
(US)
| 数据来源 | 国际轨道数据 |
| 星历时间: | 2026-09-12T10:10:44+0800 1天前 查看轨道信息 |
| 半长轴: | 6843.678km |
| 偏心率: | 0.0002334 |
| 轨道倾角: | 97.282° |
| 近地点辐角 | 89.246° |
| 升交点赤经 | 124.186° |
| 平近点角 | 270.905° |
| 近地点: | 463.943km |
| 远地点: | 467.139km |
| 周期: | 93.906分钟 |
| 每日圈数: | 15.33446 |